This demonstration page uses our WeatherBlox Daily Observations layout. Learn more.

Left ArrowRight Arrow

Hourly Observations for August 31, 2015

Temp ( °F °C ) Dew Point ( °F °C ) Humidity (%) Winds ( mph kmh ) Pressure ( in mb ) Visibility ( mi km ) Precip ( " mm )
12:53 am 00:53 Clear 74 23.3 59 15 60 60 SE 9 15 29.89 1012 10 16 0.00 0.00
1:53 am 01:53 Clear 72 22.2 59 15 64 64 SE 8 13 29.88 1012 10 16 0.00 0.00
2:53 am 02:53 Clear 71 21.7 58 14.4 63 63 SE 7 11 29.88 1012 10 16 0.00 0.00
3:53 am 03:53 Clear 68 20 58 14.4 70 70 E 3 6 29.87 1012 10 16 0.00 0.00
4:53 am 04:53 Clear 66 18.9 58 14.4 75 75 E 6 9 29.87 1012 10 16 0.00 0.00
5:53 am 05:53 Clear 66 18.9 58 14.4 75 75 ESE 3 6 29.88 1012 10 16 0.00 0.00
6:53 am 06:53 Clear 66 18.9 58 14.4 75 75 ESE 7 11 29.88 1012 10 16 0.00 0.00
7:53 am 07:53 Sunny 66 18.9 58 14.4 75 75 ESE 8 13 29.90 1012 10 16 0.00 0.00
8:53 am 08:53 Sunny 71 21.7 59 15 66 66 SE 9 15 29.92 1013 10 16 0.00 0.00
9:53 am 09:53 Sunny 76 24.4 59 15 56 56 SE 13 20 29.92 1013 10 16 0.00 0.00
10:53 am 10:53 Sunny 82 27.8 58 14.4 44 44 SSE 8 13 29.91 1013 10 16 0.00 0.00
11:53 am 11:53 Sunny 85 29.4 56 13.3 37 37 VRB 7 11 29.92 1013 10 16 0.00 0.00
12:53 pm 12:53 Sunny 90 32.2 53 11.7 28 28 SE 12 19 29.90 1012 10 16 0.00 0.00
1:53 pm 13:53 Sunny 92 33.3 50 10 24 24 ESE 9 15 29.88 1012 10 16 0.00 0.00
2:53 pm 14:53 Sunny 94 34.4 49 9.4 21 21 SSE 15 24 29.85 1011 10 16 0.00 0.00
3:53 pm 15:53 Sunny 94 34.4 47 8.3 20 20 SE 12 19 29.83 1010 10 16 0.00 0.00
4:53 pm 16:53 Sunny 96 35.6 46 7.8 18 18 E 12 19 29.80 1009 10 16 0.00 0.00
5:53 pm 17:53 Sunny 95 35 46 7.8 19 19 E 10 17 29.79 1009 10 16 0.00 0.00
6:53 pm 18:53 Sunny 95 35 46 7.8 19 19 ESE 7 11 29.78 1009 10 16 0.00 0.00
7:53 pm 19:53 Sunny 91 32.8 50 10 25 25 ESE 12 19 29.78 1009 10 16 0.00 0.00
8:53 pm 20:53 Clear 85 29.4 54 12.2 35 35 ESE 7 11 29.80 1009 10 16 0.00 0.00
9:53 pm 21:53 Clear 85 29.4 54 12.2 35 35 SE 13 20 29.82 1010 10 16 0.00 0.00
10:53 pm 22:53 Clear 82 27.8 55 12.8 40 40 SE 10 17 29.84 1011 10 16 0.00 0.00
11:53 pm 23:53 Clear 79 26.1 55 12.8 44 44 SE 9 15 29.85 1011 10 16 0.00 0.00

Powered by AerisWeather